Regional Weather Roundup
Issued by NWS

Home | Current Version | Previous Version | Text Only | Print | Product List | Glossary Off
Versions: 1 2 3 4 5 6 7 8 9 10 11 12 13 14 15 16 17 18 19 20 21 22 23 24 25 26 27 28 29 30 31 32 33 34 35 36 37 38 39 40 41 42 43 44 45 46 47 48 49 50

000
ASUS43 KBIS 272210
RWRND

NORTH DAKOTA REGIONAL WEATHER ROUNDUP
NATIONAL WEATHER SERVICE BISMARCK ND
400 PM CST SAT DEC 27 2014

NOTE: "FAIR" INDICATES FEW OR NO CLOUDS BELOW 12,000 FEET WITH NO
SIGNIFICANT WEATHER AND/OR OBSTRUCTIONS TO VISIBILITY.


NDZ001>003-009>011-017-272300-
NORTHWEST NORTH DAKOTA

CITY           SKY/WX    TMP DP  RH WIND       PRES   REMARKS
WILLISTON      CLOUDY    25  16  68 W8        29.98R WCI  16
MINOT          CLEAR     23  14  68 NW8       29.96R WCI  14
MINOT AFB      CLOUDY    22  19  86 N9        29.96R WCI  12
$$

NDZ018>021-031>035-040>046-272300-
SOUTHWEST NORTH DAKOTA

CITY           SKY/WX    TMP DP  RH WIND       PRES   REMARKS
BISMARCK       MOCLDY    28  18  66 W13       29.99R WCI  17
DICKINSON      PTCLDY    26  16  65 W13       29.95R WCI  15
GARRISON         N/A     25  17  72 NW14      29.95R WCI  13
HETTINGER ARPT MOCLDY    27  16  63 W16       29.99R WCI  15
$$

NDZ004>008-012>016-024-026-027-054-272300-
NORTHEAST NORTH DAKOTA

CITY           SKY/WX    TMP DP  RH WIND       PRES   REMARKS
GRAND FORKS    CLOUDY    20  15  81 SW6       30.02S WCI  12
GRND FRKS AFB  CLOUDY    20  18  91 SW5       30.01S WCI  14
DEVILS LAKE    CLOUDY    21  16  79 SW6       29.96S WCI  14
$$

NDZ022-023-025-028>030-036>039-047>053-272300-
SOUTHEAST NORTH DAKOTA

CITY           SKY/WX    TMP DP  RH WIND       PRES   REMARKS
FARGO          CLOUDY    26  19  74 SW7       30.03F WCI  18
JAMESTOWN      CLOUDY    24  18  77 SW7       29.97F WCI  16
$$




USA.gov is the U.S. government's official web portal to all federal, state and local government web resources and services.